Time,TemperatureF,DewpointF,PressureIn,WindDirection,WindDirectionDegrees,WindSpeedMPH,WindSpeedGustMPH,Humidity,HourlyPrecipIn,Conditions,Clouds,dailyrainin,SolarRadiationWatts/m^2,SoftwareType,DateUTC
2013-04-18 00:00:00,45.0,42.0,-100.00,ESE,112,9.0,-999.0,91,0.05,,,-99.99,0.000000,,2013-04-18 04:00:00,
2013-04-18 00:43:00,45.0,42.0,-100.00,ESE,112,9.0,-999.0,91,0.05,,,-99.99,0.000000,,2013-04-18 04:43:00,
2013-04-18 00:53:00,45.0,42.0,-100.00,ESE,112,9.0,-999.0,91,0.05,,,-99.99,0.000000,,2013-04-18 04:53:00,
2013-04-18 01:00:00,47.0,45.0,-100.00,ESE,112,8.0,-999.0,92,0.24,,,-99.99,0.000000,,2013-04-18 05:00:00,
2013-04-18 01:42:00,47.0,45.0,-100.00,ESE,112,8.0,-999.0,92,0.24,,,-99.99,0.000000,,2013-04-18 05:42:00,
2013-04-18 01:52:00,47.0,45.0,-100.00,ESE,112,8.0,-999.0,92,0.24,,,-99.99,0.000000,,2013-04-18 05:52:00,
2013-04-18 02:00:00,47.0,45.0,-100.00,ESE,112,6.0,-999.0,91,0.05,,,-99.99,0.000000,,2013-04-18 06:00:00,
2013-04-18 02:42:00,47.0,45.0,-100.00,ESE,112,6.0,-999.0,91,0.05,,,-99.99,0.000000,,2013-04-18 06:42:00,
2013-04-18 02:52:00,47.0,45.0,-100.00,ESE,112,6.0,-999.0,91,0.05,,,-99.99,0.000000,,2013-04-18 06:52:00,
2013-04-18 03:00:00,47.0,44.0,-100.00,ESE,112,7.0,-999.0,91,0.01,,,-99.99,0.000000,,2013-04-18 07:00:00,
2013-04-18 03:42:00,47.0,44.0,-100.00,ESE,112,7.0,-999.0,91,0.01,,,-99.99,0.000000,,2013-04-18 07:42:00,
2013-04-18 03:53:00,47.0,44.0,-100.00,ESE,112,7.0,-999.0,91,0.01,,,-99.99,0.000000,,2013-04-18 07:53:00,
2013-04-18 04:00:00,48.0,45.0,-100.00,SE,135,7.0,-999.0,91,-99.99,,,-99.99,0.000000,,2013-04-18 08:00:00,
2013-04-18 04:42:00,48.0,45.0,-100.00,SE,135,7.0,-999.0,91,-99.99,,,-99.99,0.000000,,2013-04-18 08:42:00,
2013-04-18 04:52:00,48.0,45.0,-100.00,SE,135,7.0,-999.0,91,-99.99,,,-99.99,0.000000,,2013-04-18 08:52:00,
2013-04-18 05:00:00,49.0,47.0,-100.00,WNW,292,6.0,-999.0,91,-99.99,,,-99.99,0.000000,,2013-04-18 09:00:00,
2013-04-18 05:43:00,49.0,47.0,-100.00,WNW,292,6.0,-999.0,91,-99.99,,,-99.99,0.000000,,2013-04-18 09:43:00,
2013-04-18 05:53:00,49.0,47.0,-100.00,WNW,292,6.0,-999.0,91,-99.99,,,-99.99,0.000000,,2013-04-18 09:53:00,
2013-04-18 06:00:00,49.0,47.0,-100.00,East,90,5.0,-999.0,91,-99.99,,,-99.99,0.000000,,2013-04-18 10:00:00,
2013-04-18 06:42:00,49.0,47.0,-100.00,East,90,5.0,-999.0,91,-99.99,,,-99.99,0.000000,,2013-04-18 10:42:00,
2013-04-18 06:53:00,49.0,47.0,-100.00,East,90,5.0,-999.0,91,-99.99,,,-99.99,0.000000,,2013-04-18 10:53:00,
2013-04-18 07:00:00,50.0,48.0,-100.00,ESE,112,7.0,-999.0,92,-99.99,,,-99.99,0.000000,,2013-04-18 11:00:00,
2013-04-18 07:42:00,50.0,48.0,-100.00,ESE,112,7.0,-999.0,92,-99.99,,,-99.99,0.000000,,2013-04-18 11:42:00,
2013-04-18 07:52:00,50.0,48.0,-100.00,ESE,112,7.0,-999.0,92,-99.99,,,-99.99,0.000000,,2013-04-18 11:52:00,
2013-04-18 08:00:00,58.0,54.0,-100.00,SSE,157,13.0,-999.0,87,0.01,,,-99.99,19.719999,,2013-04-18 12:00:00,
2013-04-18 08:42:00,58.0,54.0,-100.00,SSE,157,13.0,-999.0,87,0.01,,,-99.99,19.719999,,2013-04-18 12:42:00,
2013-04-18 08:53:00,58.0,54.0,-100.00,SSE,157,13.0,-999.0,87,0.01,,,-99.99,19.719999,,2013-04-18 12:53:00,
2013-04-18 09:00:00,63.0,58.0,-100.00,South,180,14.0,-999.0,83,-99.99,,,-99.99,145.000000,,2013-04-18 13:00:00,
2013-04-18 09:43:00,63.0,58.0,-100.00,South,180,14.0,-999.0,83,-99.99,,,-99.99,145.000000,,2013-04-18 13:43:00,
2013-04-18 09:53:00,63.0,58.0,-100.00,South,180,14.0,-999.0,83,-99.99,,,-99.99,145.000000,,2013-04-18 13:53:00,
2013-04-18 10:00:00,66.0,59.0,-100.00,South,180,13.0,-999.0,80,-99.99,,,-99.99,203.000000,,2013-04-18 14:00:00,
2013-04-18 10:43:00,66.0,59.0,-100.00,South,180,13.0,-999.0,80,-99.99,,,-99.99,203.000000,,2013-04-18 14:43:00,
2013-04-18 10:52:00,66.0,59.0,-100.00,South,180,13.0,-999.0,80,-99.99,,,-99.99,203.000000,,2013-04-18 14:52:00,
2013-04-18 11:00:00,68.0,60.0,-100.00,South,180,16.0,-999.0,77,-99.99,,,-99.99,187.919998,,2013-04-18 15:00:00,
2013-04-18 11:43:00,68.0,60.0,-100.00,South,180,16.0,-999.0,77,-99.99,,,-99.99,187.919998,,2013-04-18 15:43:00,
2013-04-18 11:53:00,68.0,60.0,-100.00,South,180,16.0,-999.0,77,-99.99,,,-99.99,187.919998,,2013-04-18 15:53:00,
2013-04-18 12:00:00,70.0,61.0,-100.00,SSW,202,16.0,-999.0,73,-99.99,,,-99.99,193.720001,,2013-04-18 16:00:00,
2013-04-18 12:43:00,70.0,61.0,-100.00,SSW,202,16.0,-999.0,73,-99.99,,,-99.99,193.720001,,2013-04-18 16:43:00,
2013-04-18 12:53:00,70.0,61.0,-100.00,SSW,202,16.0,-999.0,73,-99.99,,,-99.99,193.720001,,2013-04-18 16:53:00,
2013-04-18 13:00:00,67.0,58.0,-100.00,SW,225,11.0,-999.0,73,-99.99,,,-99.99,139.199997,,2013-04-18 17:00:00,
2013-04-18 13:43:00,67.0,58.0,-100.00,SW,225,11.0,-999.0,73,-99.99,,,-99.99,139.199997,,2013-04-18 17:43:00,
2013-04-18 13:52:00,67.0,58.0,-100.00,SW,225,11.0,-999.0,73,-99.99,,,-99.99,139.199997,,2013-04-18 17:52:00,
2013-04-18 14:00:00,63.0,58.0,-100.00,SW,225,9.0,-999.0,83,0.03,,,-99.99,98.599998,,2013-04-18 18:00:00,
2013-04-18 14:43:00,63.0,58.0,-100.00,SW,225,9.0,-999.0,83,0.03,,,-99.99,98.599998,,2013-04-18 18:43:00,
2013-04-18 14:53:00,63.0,58.0,-100.00,SW,225,9.0,-999.0,83,0.03,,,-99.99,98.599998,,2013-04-18 18:53:00,
2013-04-18 15:00:00,62.0,58.0,-100.00,SW,225,8.0,-999.0,87,0.02,,,-99.99,118.320000,,2013-04-18 19:00:00,
2013-04-18 15:43:00,62.0,58.0,-100.00,SW,225,8.0,-999.0,87,0.02,,,-99.99,118.320000,,2013-04-18 19:43:00,
2013-04-18 15:53:00,62.0,58.0,-100.00,SW,225,8.0,-999.0,87,0.02,,,-99.99,118.320000,,2013-04-18 19:53:00,
2013-04-18 16:00:00,62.0,58.0,-100.00,SSW,202,8.0,-999.0,88,0.02,,,-99.99,132.240005,,2013-04-18 20:00:00,
2013-04-18 16:43:00,62.0,58.0,-100.00,SSW,202,8.0,-999.0,88,0.02,,,-99.99,132.240005,,2013-04-18 20:43:00,
2013-04-18 16:52:00,62.0,58.0,-100.00,SSW,202,8.0,-999.0,88,0.02,,,-99.99,132.240005,,2013-04-18 20:52:00,
2013-04-18 18:00:00,61.0,57.0,-100.00,SSW,202,10.0,-999.0,88,0.05,,,-99.99,34.799999,,2013-04-18 22:00:00,
2013-04-18 18:42:00,61.0,57.0,-100.00,SSW,202,10.0,-999.0,88,0.05,,,-99.99,34.799999,,2013-04-18 22:42:00,
2013-04-18 18:53:00,61.0,57.0,-100.00,SSW,202,10.0,-999.0,88,0.05,,,-99.99,34.799999,,2013-04-18 22:53:00,
2013-04-18 21:00:00,59.0,56.0,-100.00,SSE,157,12.0,-999.0,90,0.03,,,-99.99,1.160000,,2013-04-19 01:00:00,
2013-04-18 21:42:00,59.0,56.0,-100.00,SSE,157,12.0,-999.0,90,0.03,,,-99.99,1.160000,,2013-04-19 01:42:00,
2013-04-18 21:52:00,59.0,56.0,-100.00,SSE,157,12.0,-999.0,90,0.03,,,-99.99,1.160000,,2013-04-19 01:52:00,
2013-04-18 22:00:00,59.0,56.0,-100.00,SSE,157,16.0,-999.0,89,0.12,,,-99.99,0.000000,,2013-04-19 02:00:00,
2013-04-18 22:42:00,59.0,56.0,-100.00,SSE,157,16.0,-999.0,89,0.12,,,-99.99,0.000000,,2013-04-19 02:42:00,
2013-04-18 22:52:00,59.0,56.0,-100.00,SSE,157,16.0,-999.0,89,0.12,,,-99.99,0.000000,,2013-04-19 02:52:00,
2013-04-18 23:00:00,58.0,55.0,-100.00,SSE,157,13.0,-999.0,89,0.08,,,-99.99,0.000000,,2013-04-19 03:00:00,
2013-04-18 23:43:00,58.0,55.0,-100.00,SSE,157,13.0,-999.0,89,0.08,,,-99.99,0.000000,,2013-04-19 03:43:00,
2013-04-18 23:53:00,58.0,55.0,-100.00,SSE,157,13.0,-999.0,89,0.08,,,-99.99,0.000000,,2013-04-19 03:53:00,